SCP
0 0 0 0 0 0 0 0 0 0 0 0 0 0 0 0 0 0 0 0 0 0 0 0 0 0 0 0 0 0 0 0 0 0 0 0 0 0 0 0 0 0 0
0 0 0 0 0 0 0 0 0 0 0 0 0 0 0 0 0 0 0 0 0 0 0 0 0 0 0 0 0 0 0 0 0 0 0 0 0 0 0 0 0 0 0
0 0 0 0 0 0 0 0 0 0 0 0 0 0 0 0 0 0 0 0 0 0 0 0 0 0 0 0 0 0 0 0 0 0 0 0 0 0 0 0 0 0 0
0 0 0 0 0 0 0 0 0 0 0 0 0 0 0 0 0 0 0 0 0 0 0 0 0 0 0 0 0 0 0 0 0 0 0 0 0 0 0 0 0 0 0
0 0 0 0 0 0 0 0 0 0 0 0 0 0 0 0 0 0 0 0 0 0 0 0 0 0 0 0 0 0 0 0 0 0 0 0 0 0 0 0 0 0 0
0 0 0 0 0 0 0 0 0 0 0 0 0 0 0 0 0 0 0 0 0 0 0 0 0 0 0 0 0 0 0 0 0 0 0 0 0 0 0 0 0 0 0
0 0 0 0 0 0 0 0 0 0 0 0 0 0 0 0 0 0 0 0 0 0 0 0 0 0 0 0 0 0 0 0 0 0 0 0 0 0 0 0 0 0 0
0 0 0 0 0 0 0 0 0 0 0 0 0 0 0 0 0 0 0 0 0 0 0 0 0 0 0 0 0 0 0 0 0 0 0 0 0 0 0 0 0 0 0
0 0 0 0 0 0 0 0 0 0 0 0 0 0 0 0 0 0 0 0 0 0 0 0 0 0 0 0 0 0 0 0 0 0 0 0 0 0 0 0 0 0 0
0 0 0 0 0 0 0 0 0 0 0 0 0 0 0 0 0 0 0 0 0 0 0 0 0 0 0 0 0 0 0 0 0 0 0 0 0 0 0 0 0 0 0
0 0 0 0 0 0 0 0 0 0 0 0 0 0 0 0 0 0 0 0 0 0 0 0 0 0 0 0 0 0 0 0 0 0 0 0 0 0 0 0 0 0 0
0 0 0 0 0 0 0 0 0 0 0 0 0 0 0 0 0 0 0 0 0 0 0 0 0 0 0 0 0 0 0 0 0 0 0 0 0 0 0 0 0 0 0
0 0 0 0 0 0 0 0 0 0 0 0 0 0 0 0 0 0 0 0 0 0 0 0 0 0 0 0 0 0 0 0 0 0 0 0 0 0 0 0 0 0 0
0 0 0 0 0 0 0 0 0 0 0 0 0 0 0 0 0 0 0 0 0 0 0 0 0 0 0 0 0 0 0 0 0 0 0 0 0 0 0 0 0 0 0
0 0 0 0 0 0 0 0 0 0 0 0 0 0 0 0 0 0 0 0 0 0 0 0 0 0 0 0 0 0 0 0 0 0 0 0 0 0 0 0 0 0 0
0 0 0 0 0 0 0 0 0 0 0 0 0 0 0 0 0 0 0 0 0 0 0 0 0 0 0 0 0 0 0 0 0 0 0 0 0 0 0 0 0 0 0
0 0 0 0 0 0 0 0 0 0 0 0 0 0 0 0 0 0 0 0 0 0 0 0 0 0 0 0 0 0 0 0 0 0 0 0 0 0 0 0 0 0 0
0 0 0 0 0 0 0 0 0 0 0 0 0 0 0 0 0 0 0 0 0 0 0 0 0 0 0 0 0 0 0 0 0 0 0 0 0 0 0 0 0 0 0
0 0 0 0 0 0 0 0 0 0 0 0 0 0 0 0 0 0 0 0 0 0 0 0 0 0 0 0 0 0 0 0 0 0 0 0 0 0 0 0 0 0 0
0 0 0 0 0 0 0 0 0 0 0 0 0 0 0 0 0 0 0 0 0 0 0 0 0 0 0 0 0 0 0 0 0 0 0 0 0 0 0 0 0 0 0
0 0 0 0 0 0 0 0 0 0 0 0 0 0 0 0 0 0 0 0 0 0 0 0 0 0 0 0 0 0 0 0 0 0 0 0 0 0 0 0 0 0 0
0 0 0 0 0 0 0 0 0 0 0 0 0 0 0 0 0 0 0 0 0 0 0 0 0 0 0 0 0 0 0 0 0 0 0 0 0 0 0 0 0 0 0
0 0 0 0 0 0 0 0 0 0 0 0 0 0 0 0 0 0 0 0 0 0 0 0 0 0 0 0 0 0 0 0 0 0 0 0 0 0 0 0 0 0 0
0 0 0 0 0 0 0 0 0 0 0 0 0 0 0 0 0 0 0 0 0 0 0 0 0 0 0 0 0 0 0 0 0 0 0 0 0 0 0 0 0 0 0
0 0 0 0 0 0 0 0 0 0 0 0 0 0 0 0 0 0 0 0 0 0 0 0 0 0 0 0 0 0 0 0 0 0 0 0 0 0 0 0 0 0 0
0 0 0 0 0 0 0 0 0 0 0 0 0 0 0 0 0 0 0 0 0 0 0 0 0 0 0 0 0 0 0 0 0 0 0 0 0 0 0 0 0 0 0
Wind_Speed
2 1 2 1 1 1 1 2 2 3 3 4 4 4 4 4 4 4 3 8 9 9 8 8 7 7 7 7 7 6 6 6 6 7 7 7 7 7 7 6 6 7 7
2 2 2 2 2 1 2 2 3 3 3 3 4 4 4 3 3 3 3 4 7 8 8 8 8 7 7 7 7 7 6 6 6 6 6 6 6 6 6 6 6 6 6
2 3 2 2 2 2 3 3 3 3 2 3 4 4 3 3 3 3 3 3 3 5 7 8 8 7 7 7 8 8 8 8 7 7 6 6 5 5 5 5 6 6 6
4 3 2 2 2 2 2 2 2 2 3 3 3 2 2 2 3 3 2 2 2 2 4 6 7 7 7 7 7 8 8 8 8 7 6 5 5 4 4 4 5 6 6
4 3 2 2 2 2 2 2 3 2 2 2 2 1 1 2 2 2 2 2 2 2 2 4 5 6 6 7 7 7 7 7 7 7 6 5 5 4 4 4 4 5 5
3 3 2 2 3 2 2 2 2 2 1 1 1 2 1 1 1 2 2 2 2 3 3 3 2 3 6 6 7 7 7 7 7 6 6 5 4 4 4 4 4 5 5
3 2 2 2 2 2 2 2 2 2 2 1 1 2 1 1 2 1 1 2 3 3 3 3 2 2 2 6 7 7 7 7 7 6 5 5 4 4 5 5 5 5 5
3 2 2 2 2 2 2 2 2 1 1 2 1 1 1 2 3 2 1 1 2 2 3 3 3 3 3 2 4 6 6 6 6 6 5 5 5 4 4 4 4 4 4
2 2 2 2 2 2 1 1 1 1 0 2 1 1 1 0 1 1 1 2 2 2 2 2 3 3 3 3 3 4 6 5 5 6 5 5 5 4 4 4 3 3 4
2 2 2 2 2 2 1 0 1 1 1 1 2 1 1 1 1 1 2 2 2 2 2 2 3 2 3 3 4 5 5 4 5 5 4 4 4 3 3 3 3 3 3
1 2 1 1 1 1 1 0 1 1 1 1 1 1 2 1 1 1 1 1 2 1 1 1 2 2 2 3 3 4 4 4 4 4 4 4 4 3 2 2 2 2 2
1 2 2 1 1 1 1 0 1 1 1 1 1 1 0 0 1 0 0 0 1 1 1 1 1 1 2 2 3 5 4 3 3 3 3 3 3 3 3 2 3 3 3
1 2 2 1 1 1 1 1 1 1 0 0 0 1 0 0 0 0 1 0 1 1 1 1 0 1 2 2 2 3 2 2 2 2 3 3 3 2 2 2 2 2 2
2 2 2 1 1 1 1 2 1 0 0 0 0 1 1 1 1 1 1 1 1 1 1 1 0 1 1 1 1 1 1 1 1 1 1 1 2 2 2 2 2 2 1
2 3 3 2 2 1 1 1 1 1 0 0 0 1 0 1 1 0 1 1 1 0 1 1 1 1 0 1 2 1 1 2 2 1 0 0 1 1 1 1 1 2 2
2 2 2 2 3 2 1 1 0 0 1 1 1 1 1 0 1 1 1 1 1 1 1 1 1 1 1 0 1 0 1 2 3 2 2 1 0 0 0 1 1 1 2
2 2 2 2 2 2 2 2 1 1 1 1 0 0 0 1 1 0 1 1 0 1 1 1 1 1 1 1 1 1 0 1 1 3 3 2 2 1 0 1 1 1 1
2 2 3 2 2 2 1 2 1 1 1 1 1 0 0 1 1 0 0 0 0 0 1 1 1 1 1 1 0 1 1 1 1 3 3 3 2 2 2 1 1 0 1
1 2 3 2 2 2 2 2 2 1 1 1 1 1 1 1 1 0 1 0 1 1 0 1 1 1 1 1 1 2 2 1 1 2 3 3 3 3 4 3 2 1 1
2 2 2 2 2 2 2 1 1 1 1 1 1 1 1 1 1 1 0 0 0 0 0 1 1 1 1 2 1 1 2 2 2 1 1 2 3 4 4 4 4 3 2
3 2 2 2 2 1 1 1 1 0 0 1 1 1 2 2 2 1 1 0 0 0 1 0 1 1 1 1 1 1 2 2 2 1 1 1 1 1 2 4 5 5 4
2 2 2 2 1 1 1 2 1 1 0 1 1 1 1 1 1 1 0 0 1 1 1 1 1 1 2 2 1 1 2 1 2 2 1 2 1 1 1 1 2 4 4
2 2 2 2 2 1 3 2 0 0 0 0 0 1 0 0 0 0 1 1 1 2 2 2 2 3 3 2 2 2 2 2 3 2 0 2 1 2 2 2 3 4 4
3 2 2 2 2 2 2 2 1 0 0 1 1 1 1 0 0 0 1 1 2 2 3 2 2 3 2 2 2 2 2 2 2 1 0 1 2 2 1 1 3 4 5
2 2 2 2 2 2 3 3 2 1 1 1 1 0 0 1 1 2 0 1 1 2 3 3 3 2 2 2 2 0 0 0 2 2 1 0 1 2 1 1 2 3 3
2 2 2 2 2 2 3 4 3 2 1 1 1 1 2 1 2 2 1 1 1 2 2 2 2 2 2 3 3 2 2 1 1 2 1 0 1 1 1 1 1 1 1
Wind_Direction
82 65 76 69 62 57 45 34 38 35 37 38 45 58 52 58 70 74 75 78 76 72 70 67 74 79 79 82 90 92 93 95 95 92 86 80 76 76 74 71 68 73 81
72 70 64 52 44 47 44 52 55 45 37 40 41 46 47 49 69 79 89 83 80 74 67 64 72 79 81 84 86 90 94 96 97 95 88 80 74 71 71 70 70 73 80
73 73 69 54 31 41 45 43 52 50 50 46 41 37 42 38 55 64 75 88 86 75 72 67 68 71 75 81 82 85 85 85 86 85 82 78 74 70 69 73 75 77 79
58 62 62 54 47 46 40 40 48 46 44 40 37 24 39 31 40 57 68 78 93 95 78 73 69 70 72 77 80 80 78 77 77 77 76 73 72 73 75 80 81 80 79
54 61 52 49 60 60 44 45 47 46 52 41 27 13 40 48 34 44 47 65 83 93 101 92 79 73 76 77 79 79 76 74 75 74 71 68 65 69 76 88 89 86 87
54 54 51 52 60 60 45 54 57 40 50 25 14 30 36 61 54 45 28 40 60 73 76 88 93 79 80 82 81 80 78 73 71 70 67 64 59 68 78 89 93 95 94
56 65 47 53 54 67 66 64 65 50 25 27 40 14 1 33 64 59 42 38 48 54 61 67 72 80 82 78 77 76 74 72 67 66 65 63 61 68 78 84 91 97 96
43 53 59 66 57 56 57 58 67 50 8 5 38 49 21 10 5 25 52 54 52 42 41 54 62 70 78 87 77 78 73 69 66 60 58 62 61 71 83 85 93 97 95
56 45 44 53 70 70 56 41 67 71 30 341 9 75 92 86 320 340 11 49 46 51 43 42 56 59 76 78 80 72 77 70 65 59 55 56 58 72 85 90 88 93 95
76 59 45 52 73 86 84 22 83 68 72 348 335 359 40 113 133 331 333 16 39 48 44 40 53 48 68 78 80 75 71 64 63 59 57 58 60 75 83 84 90 100 100
114 109 83 68 80 92 112 133 94 74 68 64 6 354 8 4 32 118 304 343 357 8 47 52 69 54 64 82 90 80 74 64 59 50 49 46 43 50 62 77 90 105 110
145 129 121 115 122 119 129 124 115 98 49 31 18 29 57 10 326 40 132 311 324 333 356 52 74 69 74 75 84 83 80 70 57 45 38 33 29 34 48 63 80 81 85
152 148 133 153 160 154 147 112 104 128 132 68 1 327 359 287 178 99 93 352 352 318 354 11 60 98 85 87 93 94 93 85 69 52 38 28 22 24 34 35 47 63 67
161 154 156 167 150 143 124 112 105 135 109 121 354 342 332 324 23 116 143 114 10 328 333 293 349 86 75 95 132 125 128 132 114 91 44 24 17 13 14 19 26 18 14
161 166 164 159 143 129 116 120 125 147 154 138 241 259 292 317 336 23 128 150 146 265 287 263 355 357 45 112 172 186 176 184 170 186 165 13 20 30 5 21 21 9 12
145 149 160 163 153 151 153 128 138 184 152 172 214 232 249 269 11 28 27 32 108 155 250 275 267 287 341 351 191 308 219 200 209 216 199 186 224 274 16 53 43 28 16
158 170 176 172 158 158 165 153 178 171 203 210 222 225 261 123 99 37 9 21 43 121 208 296 326 345 0 20 355 323 276 225 221 205 193 192 202 216 178 123 70 22 354
177 172 165 172 169 156 165 153 183 208 219 224 237 235 352 59 73 28 38 351 307 170 155 265 301 325 327 304 292 291 291 284 246 208 198 194 207 206 194 187 184 29 4
185 179 161 176 172 162 166 164 179 203 218 211 189 141 129 101 108 85 65 3 317 341 145 207 277 293 305 312 321 307 301 297 285 219 212 208 214 221 215 203 198 193 198
193 183 172 173 173 173 177 183 174 198 233 185 128 123 122 119 123 157 173 233 299 331 260 230 254 277 291 312 353 319 310 301 286 275 261 234 229 236 233 219 209 204 203
179 166 158 155 158 163 163 139 153 230 224 129 102 81 73 73 64 66 61 141 156 243 262 243 258 286 295 317 302 290 290 300 286 269 279 259 224 238 233 228 218 213 214
165 159 161 158 148 130 98 102 100 127 155 149 154 143 133 104 61 33 46 94 130 182 210 211 246 251 270 264 275 283 287 303 288 288 254 265 205 241 236 212 211 210 213
167 161 158 146 151 142 125 120 87 84 67 221 165 145 293 12 101 283 284 260 247 247 230 203 220 244 249 248 238 262 274 261 254 264 272 269 243 236 238 209 201 210 197
166 167 164 168 165 169 162 176 212 187 283 281 251 199 179 80 349 11 261 239 235 233 232 228 232 251 244 232 213 219 238 273 278 280 127 255 271 257 250 210 202 201 192
163 163 165 176 181 184 191 199 200 200 215 254 269 354 75 142 13 31 356 283 284 286 262 252 246 252 272 259 233 153 296 316 293 292 335 255 277 281 265 215 210 205 193
164 166 173 177 172 173 194 201 207 198 208 242 269 21 24 44 38 51 45 333 308 296 307 300 280 273 260 232 220 201 200 207 251 280 303 324 295 333 303 253 183 198 216